Weather History for Taylorville, IL

Change the Weather History Date:

Saturday, January 19, 2013

  Actual Average (KSPI) Record (KSPI)
Temperature  
Mean Temperature 44 °F 26 °F  
Max Temperature 55 °F 35 °F 69 °F (1952)
Min Temperature 33 °F 18 °F -18 °F (1985)
Degree Days  
Heating Degree Days 21 38  
Month to date heating degree days 729  
Since 1 July heating degree days 2869  
Cooling Degree Days 0 0  
Month to date cooling degree days 0  
Year to date cooling degree days 0  
Moisture  
Dew Point 32 °F    
Average Humidity 66    
Maximum Humidity 81    
Minimum Humidity 47    
Precipitation  
Precipitation 0.00 in 0.06 in 1.31 in (1988)
Month to date precipitation 1.17  
Year to date precipitation 1.17  
Snow  
Snow 0.00 in 0.20 in 5.80 in (1987)
Month to date snowfall 3.9  
Since 1 July snowfall 10.1  
Snow Depth -    
Sea Level Pressure  
Sea Level Pressure 29.99 in    
Wind  
Wind Speed 16 mph (SW)    
Max Wind Speed 24 mph    
Max Gust Speed 31 mph    
Visibility 10 miles    
Events      
T = Trace of Precipitation, MM = Missing Value Source: NWS Daily Summary

Daily Weather History Graph

Daily Weather History Graph

Search for Another Location

Airport:

Trip Planner

Search our weather history database for the weather conditions in past years. The results will help you decide how hot, cold, wet, or windy it might be!

Date:

Astronomy

Jan. 19, 2013 Rise Set
Actual Time 7:14 AM CST 5:02 PM CST
Civil Twilight 6:44 AM CST 5:31 PM CST
Nautical Twilight 6:11 AM CST 6:04 PM CST
Astronomical Twilight 5:39 AM CST 6:36 PM CST
Moon 11:28 AM CST (1/19) 12:48 AM CST (1/19)
Length of Visible Light 10h 46m
Length of Day
9h 48m
First Quarter, 57% of the Moon is Illuminated
Jan 19
First Quarter
Jan 26
Full
Feb 3
Last Quarter
Feb 10
New
Feb 17
First Quarter

Hourly Weather History & Observations

Time (CST) Temp. Windchill Dew Point Humidity Pressure Visibility Wind Dir Wind Speed Gust Speed Precip Events Conditions
12:15 AM 35.6 °F 25.2 °F 28.4 °F 75% 30.09 in 10.0 mi South 18.4 mph 25.3 mph N/A   Clear
12:35 AM 35.6 °F 24.8 °F 28.4 °F 75% 30.09 in 10.0 mi SSW 19.6 mph 25.3 mph N/A   Clear
12:55 AM 35.6 °F 25.5 °F 28.4 °F 75% 30.08 in 10.0 mi South 17.3 mph 21.9 mph N/A   Clear
1:15 AM 35.6 °F 25.9 °F 28.4 °F 75% 30.09 in 10.0 mi South 16.1 mph 19.6 mph N/A   Clear
1:35 AM 35.6 °F 25.9 °F 28.4 °F 75% 30.09 in 10.0 mi South 16.1 mph - N/A   Clear
1:55 AM 33.8 °F 23.9 °F 28.4 °F 81% 30.09 in 10.0 mi South 15.0 mph - N/A   Clear
2:15 AM 33.8 °F 24.3 °F 28.4 °F 81% 30.09 in 10.0 mi South 13.8 mph - N/A   Clear
2:35 AM 33.8 °F 24.3 °F 28.4 °F 81% 30.08 in 10.0 mi South 13.8 mph - N/A   Clear
2:55 AM 33.8 °F 24.3 °F 28.4 °F 81% 30.08 in 10.0 mi South 13.8 mph 19.6 mph N/A   Clear
3:15 AM 33.8 °F 24.3 °F 28.4 °F 81% 30.07 in 10.0 mi South 13.8 mph - N/A   Clear
3:35 AM 33.8 °F 23.9 °F 28.4 °F 81% 30.07 in 10.0 mi South 15.0 mph - N/A   Clear
3:55 AM 33.8 °F 24.3 °F 28.4 °F 81% 30.06 in 10.0 mi South 13.8 mph 20.7 mph N/A   Clear
4:15 AM 33.8 °F 23.2 °F 28.4 °F 81% 30.05 in 10.0 mi South 17.3 mph - N/A   Clear
4:35 AM 35.6 °F 25.5 °F 28.4 °F 75% 30.05 in 10.0 mi South 17.3 mph - N/A   Clear
4:55 AM 35.6 °F 25.5 °F 28.4 °F 75% 30.04 in 10.0 mi South 17.3 mph - N/A   Clear
5:15 AM 35.6 °F 25.5 °F 26.6 °F 70% 30.04 in 10.0 mi South 17.3 mph - N/A   Clear
5:35 AM 35.6 °F 25.9 °F 26.6 °F 70% 30.03 in 10.0 mi South 16.1 mph - N/A   Clear
5:55 AM 35.6 °F 25.9 °F 26.6 °F 70% 30.03 in 10.0 mi South 16.1 mph 25.3 mph N/A   Clear
7:15 AM 33.8 °F 24.8 °F 26.6 °F 75% 30.02 in 10.0 mi South 12.7 mph - N/A   Clear
7:55 AM 35.6 °F 26.6 °F 28.4 °F 75% 30.02 in 10.0 mi South 13.8 mph 20.7 mph N/A   Clear
8:15 AM 35.6 °F 25.9 °F 28.4 °F 75% 30.01 in 10.0 mi South 16.1 mph 20.7 mph N/A   Clear
8:35 AM 37.4 °F 28.2 °F 28.4 °F 70% 30.01 in 10.0 mi South 16.1 mph - N/A   Clear
9:35 AM 41.0 °F 32.2 °F 30.2 °F 65% 30.01 in 10.0 mi South 18.4 mph - N/A   Clear
9:55 AM 42.8 °F 34.3 °F 30.2 °F 61% 30.00 in 10.0 mi South 19.6 mph 25.3 mph N/A   Clear
10:15 AM 42.8 °F 34.3 °F 30.2 °F 61% 29.99 in 10.0 mi South 19.6 mph 27.6 mph N/A   Clear
10:35 AM 44.6 °F 36.6 °F 32.0 °F 61% 29.98 in 10.0 mi SSW 19.6 mph 24.2 mph N/A   Clear
10:55 AM 44.6 °F 36.9 °F 33.8 °F 66% 29.97 in 10.0 mi SSW 18.4 mph 25.3 mph N/A   Clear
11:15 AM 46.4 °F 40.1 °F 33.8 °F 62% 29.96 in 10.0 mi SSW 15.0 mph 23.0 mph N/A   Clear
11:35 AM 48.2 °F - 35.6 °F 62% 29.94 in 10.0 mi SSW 17.3 mph 23.0 mph N/A   Clear
11:55 AM 48.2 °F - 33.8 °F 58% 29.92 in 10.0 mi SSW 19.6 mph 26.5 mph N/A   Clear
12:15 PM 51.8 °F - 35.6 °F 54% 29.91 in 10.0 mi SSW 18.4 mph 25.3 mph N/A   Clear
12:35 PM 51.8 °F - 35.6 °F 54% 29.89 in 10.0 mi SSW 24.2 mph 27.6 mph N/A   Clear
12:55 PM 51.8 °F - 35.6 °F 54% 29.89 in 10.0 mi SW 17.3 mph 25.3 mph N/A   Clear
1:15 PM 53.6 °F - 35.6 °F 51% 29.88 in 10.0 mi SW 16.1 mph 31.1 mph N/A   Clear
1:35 PM 53.6 °F - 35.6 °F 51% 29.89 in 10.0 mi SW 18.4 mph 24.2 mph N/A   Clear
1:55 PM 55.4 °F - 35.6 °F 47% 29.88 in 10.0 mi SW 21.9 mph 28.8 mph N/A   Clear
2:15 PM 53.6 °F - 35.6 °F 51% 29.87 in 10.0 mi SW 19.6 mph 24.2 mph N/A   Clear
2:35 PM 53.6 °F - 37.4 °F 54% 29.87 in 10.0 mi SW 16.1 mph - N/A   Clear
2:55 PM 53.6 °F - 37.4 °F 54% 29.87 in 10.0 mi SW 10.4 mph 16.1 mph N/A   Clear
3:15 PM 53.6 °F - 37.4 °F 54% 29.87 in 10.0 mi SW 10.4 mph - N/A   Clear
3:35 PM 55.4 °F - 37.4 °F 51% 29.88 in 10.0 mi SW 9.2 mph - N/A   Clear
3:55 PM 53.6 °F - 37.4 °F 54% 29.88 in 10.0 mi SW 12.7 mph - N/A   Clear
4:15 PM 53.6 °F - 37.4 °F 54% 29.88 in 10.0 mi SW 12.7 mph 18.4 mph N/A   Clear
4:35 PM 51.8 °F - 37.4 °F 58% 29.89 in 10.0 mi SW 10.4 mph - N/A   Clear
4:55 PM 51.8 °F - 35.6 °F 54% 29.89 in 10.0 mi SW 11.5 mph - N/A   Clear
5:15 PM 50.0 °F - 35.6 °F 58% 29.90 in 10.0 mi SW 11.5 mph - N/A   Clear
5:35 PM 48.2 °F - 35.6 °F 62% 29.90 in 10.0 mi WSW 12.7 mph 19.6 mph N/A   Clear
5:55 PM 48.2 °F - 35.6 °F 62% 29.92 in 10.0 mi WSW 15.0 mph - N/A   Clear
6:15 PM 46.4 °F 41.1 °F 33.8 °F 62% 29.93 in 10.0 mi West 11.5 mph - N/A   Clear
6:35 PM 44.6 °F 38.8 °F 33.8 °F 66% 29.95 in 10.0 mi West 11.5 mph - N/A   Clear
6:55 PM 42.8 °F 37.0 °F 33.8 °F 70% 29.96 in 10.0 mi West 10.4 mph - N/A   Clear
7:15 PM 44.6 °F 38.4 °F 33.8 °F 66% 29.97 in 10.0 mi West 12.7 mph - N/A   Clear
7:35 PM 44.6 °F 38.8 °F 33.8 °F 66% 29.97 in 10.0 mi West 11.5 mph - N/A   Clear
7:55 PM 44.6 °F 39.2 °F 33.8 °F 66% 29.97 in 10.0 mi WSW 10.4 mph - N/A   Clear
8:15 PM 44.6 °F 38.1 °F 33.8 °F 66% 29.97 in 10.0 mi West 13.8 mph 20.7 mph N/A   Clear
8:35 PM 44.6 °F 38.1 °F 33.8 °F 66% 29.98 in 10.0 mi West 13.8 mph - N/A   Clear
8:55 PM 44.6 °F 37.8 °F 33.8 °F 66% 29.99 in 10.0 mi West 15.0 mph 19.6 mph N/A   Clear
9:15 PM 42.8 °F 36.6 °F 33.8 °F 70% 30.00 in 10.0 mi West 11.5 mph - N/A   Clear
9:35 PM 39.2 °F 33.6 °F 32.0 °F 75% 30.02 in 10.0 mi West 8.1 mph - N/A   Clear
9:55 PM 37.4 °F 31.4 °F 30.2 °F 75% 30.02 in 10.0 mi West 8.1 mph - N/A   Clear
10:15 PM 39.2 °F 32.5 °F 30.2 °F 70% 30.03 in 10.0 mi West 10.4 mph 16.1 mph N/A   Clear
10:35 PM 41.0 °F 34.3 °F 30.2 °F 65% 30.04 in 10.0 mi WNW 11.5 mph - N/A   Clear
10:55 PM 41.0 °F 33.1 °F 28.4 °F 61% 30.04 in 10.0 mi WNW 15.0 mph 21.9 mph N/A   Clear
11:15 PM 41.0 °F 31.9 °F 28.4 °F 61% 30.05 in 10.0 mi WNW 19.6 mph 25.3 mph N/A   Clear
11:35 PM 39.2 °F 31.2 °F 28.4 °F 65% 30.06 in 10.0 mi WNW 13.8 mph - N/A   Clear
11:55 PM 37.4 °F 29.8 °F 28.4 °F 70% 30.07 in 10.0 mi WNW 11.5 mph - N/A   Clear